User: anonymous   Login
Location: Ajisawe
(8.4333°N, 4.3833°E)
Time: 23:29:06
(UTC+00:00)
Language:

ATLAS 2A CENTAUR R/B - Orbit

View from above orbital plane
View from above orbital plane
View from above satellite
View from above satellite

Ground track
Ground track

The orbit data is extracted from the following two-line orbital elements,

1 25968U 99063B   21126.46408438  .00019827  00000-0  61257-3 0  9997
2 25968  26.8351 273.7416 5197816 334.9196   6.8699  5.39672767321612
Epoch (UTC): 06 May 2021 11:08:16
Eccentricity: 0.5197816
inclination: 26.8351°
perigee height: 215 km
apogee height: 14487 km
right ascension of ascending node: 273.7416°
argument of perigee: 334.9196°
revolutions per day: 5.39672767
mean anomaly at epoch: 6.8699°
orbit number at epoch: 32161

The dashed part of the orbit path shows where the satellite is in the earth's shadow,  

DLR